Time,TemperatureF,DewpointF,PressureIn,WindDirection,WindDirectionDegrees,WindSpeedMPH,WindSpeedGustMPH,Humidity,HourlyPrecipIn,Conditions,Clouds,dailyrainin,SoftwareType,DateUTC
2013-02-05 00:01:00,32.0,15.0,-100.00,SE,143,14.0,26.0,48,0.00,,,-99.99,,2013-02-05 07:01:00,
2013-02-05 00:11:00,32.0,15.0,-100.00,SSE,155,21.0,28.0,49,0.00,,,-99.99,,2013-02-05 07:11:00,
2013-02-05 00:22:00,33.0,15.0,-100.00,SSE,151,22.0,39.0,46,0.00,,,-99.99,,2013-02-05 07:22:00,
2013-02-05 00:31:00,35.0,15.0,-100.00,SE,144,19.0,32.0,43,0.00,,,-99.99,,2013-02-05 07:31:00,
2013-02-05 00:41:00,35.0,15.0,-100.00,SE,143,16.0,32.0,43,0.00,,,-99.99,,2013-02-05 07:41:00,
2013-02-05 00:51:00,34.0,15.0,-100.00,SE,124,6.0,14.0,45,0.00,,,-99.99,,2013-02-05 07:51:00,
2013-02-05 01:01:00,34.0,15.0,-100.00,SSE,158,6.0,14.0,46,0.00,,,-99.99,,2013-02-05 08:01:00,
2013-02-05 01:11:00,32.0,15.0,-100.00,ESE,103,7.0,16.0,49,0.00,,,-99.99,,2013-02-05 08:11:00,
2013-02-05 01:21:00,33.0,15.0,-100.00,East,100,7.0,15.0,48,0.00,,,-99.99,,2013-02-05 08:21:00,
2013-02-05 01:31:00,33.0,15.0,-100.00,East,100,9.0,17.0,47,0.00,,,-99.99,,2013-02-05 08:31:00,
2013-02-05 01:41:00,34.0,15.0,-100.00,SSE,150,11.0,25.0,46,0.00,,,-99.99,,2013-02-05 08:41:00,
2013-02-05 01:52:00,35.0,15.0,-100.00,SSW,202,10.0,22.0,44,0.00,,,-99.99,,2013-02-05 08:52:00,
2013-02-05 02:02:00,34.0,15.0,-100.00,SSW,196,11.0,21.0,44,0.00,,,-99.99,,2013-02-05 09:02:00,
2013-02-05 02:11:00,35.0,14.0,-100.00,NW,312,12.0,28.0,40,0.00,,,-99.99,,2013-02-05 09:11:00,
2013-02-05 02:21:00,35.0,14.0,-100.00,East,82,7.0,21.0,42,0.00,,,-99.99,,2013-02-05 09:21:00,
2013-02-05 02:32:00,29.0,15.0,-100.00,ENE,75,11.0,19.0,54,0.00,,,-99.99,,2013-02-05 09:32:00,
2013-02-05 02:42:00,34.0,14.0,-100.00,ENE,66,9.0,28.0,42,0.00,,,-99.99,,2013-02-05 09:42:00,
2013-02-05 02:51:00,31.0,14.0,-100.00,SE,134,7.0,14.0,48,0.00,,,-99.99,,2013-02-05 09:51:00,
2013-02-05 03:02:00,31.0,15.0,-100.00,WNW,292,4.0,13.0,50,0.00,,,-99.99,,2013-02-05 10:02:00,
2013-02-05 03:11:00,32.0,15.0,-100.00,WSW,251,6.0,12.0,48,0.00,,,-99.99,,2013-02-05 10:11:00,
2013-02-05 03:21:00,33.0,15.0,-100.00,WSW,254,6.0,11.0,47,0.00,,,-99.99,,2013-02-05 10:21:00,
2013-02-05 03:32:00,32.0,14.0,-100.00,West,264,10.0,19.0,48,0.00,,,-99.99,,2013-02-05 10:32:00,
2013-02-05 03:42:00,33.0,15.0,-100.00,WSW,256,11.0,24.0,48,0.00,,,-99.99,,2013-02-05 10:42:00,
2013-02-05 03:52:00,33.0,15.0,-100.00,WNW,282,26.0,32.0,47,0.00,,,-99.99,,2013-02-05 10:52:00,
2013-02-05 04:01:00,34.0,15.0,-100.00,WNW,287,29.0,38.0,46,0.00,,,-99.99,,2013-02-05 11:01:00,
2013-02-05 04:11:00,34.0,15.0,-100.00,WNW,284,28.0,38.0,46,0.00,,,-99.99,,2013-02-05 11:11:00,
2013-02-05 04:22:00,33.0,16.0,-100.00,West,261,24.0,34.0,48,0.00,,,-99.99,,2013-02-05 11:22:00,
2013-02-05 04:32:00,32.0,15.0,-100.00,SW,219,10.0,22.0,48,0.00,,,-99.99,,2013-02-05 11:32:00,
2013-02-05 04:41:00,31.0,15.0,-100.00,SSW,213,12.0,22.0,51,0.00,,,-99.99,,2013-02-05 11:41:00,
2013-02-05 04:52:00,30.0,15.0,-100.00,SW,215,17.0,27.0,52,0.00,,,-99.99,,2013-02-05 11:52:00,
2013-02-05 05:01:00,28.0,15.0,-100.00,SSW,200,12.0,17.0,57,0.00,,,-99.99,,2013-02-05 12:01:00,
2013-02-05 05:12:00,29.0,15.0,-100.00,SW,215,10.0,13.0,54,0.00,,,-99.99,,2013-02-05 12:12:00,
2013-02-05 05:21:00,29.0,15.0,-100.00,North,10,7.0,12.0,56,0.00,,,-99.99,,2013-02-05 12:21:00,
2013-02-05 05:32:00,29.0,15.0,-100.00,NNE,18,6.0,10.0,54,0.00,,,-99.99,,2013-02-05 12:32:00,
2013-02-05 05:42:00,34.0,17.0,-100.00,North,4,11.0,21.0,48,0.00,,,-99.99,,2013-02-05 12:42:00,
2013-02-05 05:52:00,36.0,16.0,-100.00,WNW,284,9.0,19.0,44,0.00,,,-99.99,,2013-02-05 12:52:00,
2013-02-05 06:01:00,31.0,15.0,-100.00,ESE,117,11.0,22.0,51,0.00,,,-99.99,,2013-02-05 13:01:00,
2013-02-05 06:12:00,31.0,16.0,-100.00,SSE,154,13.0,22.0,54,0.00,,,-99.99,,2013-02-05 13:12:00,
2013-02-05 06:21:00,34.0,16.0,-100.00,SSW,196,14.0,21.0,47,0.00,,,-99.99,,2013-02-05 13:21:00,
2013-02-05 06:32:00,32.0,16.0,-100.00,SW,219,11.0,19.0,51,0.00,,,-99.99,,2013-02-05 13:32:00,
2013-02-05 06:42:00,31.0,16.0,-100.00,SSW,202,12.0,22.0,54,0.00,,,-99.99,,2013-02-05 13:42:00,
2013-02-05 06:51:00,31.0,16.0,-100.00,South,181,19.0,34.0,53,0.00,,,-99.99,,2013-02-05 13:51:00,
2013-02-05 07:01:00,31.0,16.0,-100.00,SSW,199,15.0,23.0,54,0.00,,,-99.99,,2013-02-05 14:01:00,
2013-02-05 07:12:00,31.0,16.0,-100.00,SSW,209,12.0,19.0,54,0.00,,,-99.99,,2013-02-05 14:12:00,
2013-02-05 07:21:00,31.0,16.0,-100.00,SSW,213,9.0,17.0,53,0.00,,,-99.99,,2013-02-05 14:21:00,
2013-02-05 07:31:00,30.0,17.0,-100.00,SSW,195,9.0,16.0,56,0.00,,,-99.99,,2013-02-05 14:31:00,
2013-02-05 07:42:00,29.0,16.0,-100.00,East,96,4.0,9.0,58,0.00,,,-99.99,,2013-02-05 14:42:00,
2013-02-05 07:52:00,30.0,16.0,-100.00,NE,38,6.0,12.0,54,0.00,,,-99.99,,2013-02-05 14:52:00,
2013-02-05 08:02:00,26.0,15.0,-100.00,East,79,6.0,10.0,61,0.00,,,-99.99,,2013-02-05 15:02:00,
2013-02-05 08:11:00,26.0,16.0,-100.00,NNE,16,7.0,12.0,65,0.00,,,-99.99,,2013-02-05 15:11:00,
2013-02-05 08:21:00,28.0,16.0,-100.00,NE,49,6.0,9.0,62,0.00,,,-99.99,,2013-02-05 15:21:00,
2013-02-05 08:32:00,27.0,16.0,-100.00,NE,54,8.0,11.0,64,0.00,,,-99.99,,2013-02-05 15:32:00,
2013-02-05 08:41:00,28.0,17.0,-100.00,ENE,72,7.0,14.0,63,0.00,,,-99.99,,2013-02-05 15:41:00,
2013-02-05 08:52:00,29.0,17.0,-100.00,NNW,337,2.0,7.0,61,0.00,,,-99.99,,2013-02-05 15:52:00,
2013-02-05 09:01:00,30.0,17.0,-100.00,NNE,24,6.0,11.0,59,0.00,,,-99.99,,2013-02-05 16:01:00,
2013-02-05 09:11:00,30.0,18.0,-100.00,NNE,20,3.0,6.0,60,0.00,,,-99.99,,2013-02-05 16:11:00,
2013-02-05 09:22:00,33.0,19.0,-100.00,ESE,102,3.0,7.0,56,0.00,,,-99.99,,2013-02-05 16:22:00,
2013-02-05 09:32:00,34.0,20.0,-100.00,ENE,59,6.0,9.0,56,0.00,,,-99.99,,2013-02-05 16:32:00,
2013-02-05 09:42:00,35.0,19.0,-100.00,ENE,68,4.0,7.0,52,0.00,,,-99.99,,2013-02-05 16:42:00,
2013-02-05 09:51:00,35.0,20.0,-100.00,ESE,103,4.0,9.0,52,0.00,,,-99.99,,2013-02-05 16:51:00,
2013-02-05 10:01:00,37.0,20.0,-100.00,ESE,102,7.0,14.0,48,0.00,,,-99.99,,2013-02-05 17:01:00,
2013-02-05 10:11:00,38.0,20.0,-100.00,ESE,104,6.0,9.0,48,0.00,,,-99.99,,2013-02-05 17:11:00,
2013-02-05 10:21:00,40.0,22.0,-100.00,ESE,104,4.0,12.0,50,0.00,,,-99.99,,2013-02-05 17:21:00,
2013-02-05 10:32:00,42.0,22.0,-100.00,NNW,346,10.0,14.0,45,0.00,,,-99.99,,2013-02-05 17:32:00,
2013-02-05 10:42:00,44.0,22.0,-100.00,WNW,285,6.0,12.0,42,0.00,,,-99.99,,2013-02-05 17:42:00,
2013-02-05 10:52:00,44.0,23.0,-100.00,NNW,332,4.0,7.0,42,0.00,,,-99.99,,2013-02-05 17:52:00,
2013-02-05 11:02:00,45.0,22.0,-100.00,NW,323,5.0,12.0,40,0.00,,,-99.99,,2013-02-05 18:02:00,
2013-02-05 11:11:00,45.0,22.0,-100.00,NW,323,8.0,17.0,40,0.00,,,-99.99,,2013-02-05 18:11:00,
2013-02-05 11:21:00,46.0,21.0,-100.00,NW,323,10.0,17.0,36,0.00,,,-99.99,,2013-02-05 18:21:00,
2013-02-05 11:32:00,47.0,21.0,-100.00,NW,323,11.0,20.0,36,0.00,,,-99.99,,2013-02-05 18:32:00,
2013-02-05 11:42:00,46.0,20.0,-100.00,NW,323,9.0,15.0,35,0.00,,,-99.99,,2013-02-05 18:42:00,
2013-02-05 11:52:00,47.0,20.0,-100.00,NW,323,8.0,18.0,34,0.00,,,-99.99,,2013-02-05 18:52:00,
2013-02-05 12:02:00,47.0,21.0,-100.00,NW,323,9.0,16.0,35,0.00,,,-99.99,,2013-02-05 19:02:00,
2013-02-05 12:11:00,48.0,20.0,-100.00,NW,323,9.0,16.0,33,0.00,,,-99.99,,2013-02-05 19:11:00,
2013-02-05 12:21:00,49.0,21.0,-100.00,NW,323,11.0,17.0,34,0.00,,,-99.99,,2013-02-05 19:21:00,
2013-02-05 12:32:00,48.0,21.0,-100.00,NW,323,12.0,18.0,34,0.00,,,-99.99,,2013-02-05 19:32:00,
2013-02-05 12:42:00,47.0,21.0,-100.00,NW,323,15.0,22.0,36,0.00,,,-99.99,,2013-02-05 19:42:00,
2013-02-05 12:52:00,47.0,21.0,-100.00,NW,323,12.0,18.0,35,0.00,,,-99.99,,2013-02-05 19:52:00,
2013-02-05 13:01:00,46.0,21.0,-100.00,NW,323,12.0,20.0,36,0.00,,,-99.99,,2013-02-05 20:01:00,
2013-02-05 13:11:00,45.0,21.0,-100.00,NW,323,12.0,17.0,37,0.00,,,-99.99,,2013-02-05 20:11:00,
2013-02-05 13:21:00,45.0,21.0,-100.00,NW,323,15.0,21.0,38,0.00,,,-99.99,,2013-02-05 20:21:00,
2013-02-05 13:32:00,45.0,20.0,-100.00,NW,323,16.0,22.0,36,0.00,,,-99.99,,2013-02-05 20:32:00,
2013-02-05 13:42:00,45.0,19.0,-100.00,NW,323,16.0,20.0,35,0.00,,,-99.99,,2013-02-05 20:42:00,
2013-02-05 13:52:00,44.0,18.0,-100.00,NW,323,18.0,26.0,35,0.00,,,-99.99,,2013-02-05 20:52:00,
2013-02-05 14:02:00,45.0,17.0,-100.00,NW,323,18.0,26.0,33,0.00,,,-99.99,,2013-02-05 21:02:00,
2013-02-05 14:11:00,44.0,17.0,-100.00,NW,323,19.0,24.0,33,0.00,,,-99.99,,2013-02-05 21:11:00,
2013-02-05 14:21:00,45.0,18.0,-100.00,NW,323,17.0,26.0,33,0.00,,,-99.99,,2013-02-05 21:21:00,
2013-02-05 14:32:00,46.0,18.0,-100.00,NW,323,19.0,29.0,33,0.00,,,-99.99,,2013-02-05 21:32:00,
2013-02-05 14:42:00,46.0,18.0,-100.00,NW,323,18.0,26.0,33,0.00,,,-99.99,,2013-02-05 21:42:00,
2013-02-05 14:51:00,46.0,19.0,-100.00,NW,323,17.0,25.0,34,0.00,,,-99.99,,2013-02-05 21:51:00,
2013-02-05 15:01:00,46.0,18.0,-100.00,NW,323,17.0,24.0,32,0.00,,,-99.99,,2013-02-05 22:01:00,
2013-02-05 15:11:00,46.0,18.0,-100.00,NW,323,18.0,28.0,32,0.00,,,-99.99,,2013-02-05 22:11:00,
2013-02-05 15:21:00,46.0,17.0,-100.00,NW,323,24.0,34.0,31,0.00,,,-99.99,,2013-02-05 22:21:00,
2013-02-05 15:32:00,47.0,18.0,-100.00,NW,323,24.0,29.0,31,0.00,,,-99.99,,2013-02-05 22:32:00,
2013-02-05 15:42:00,46.0,19.0,-100.00,NW,323,24.0,30.0,34,0.00,,,-99.99,,2013-02-05 22:42:00,
2013-02-05 15:51:00,45.0,19.0,-100.00,NW,323,24.0,31.0,34,0.00,,,-99.99,,2013-02-05 22:51:00,
2013-02-05 16:02:00,45.0,19.0,-100.00,NW,323,25.0,33.0,35,0.00,,,-99.99,,2013-02-05 23:02:00,
2013-02-05 16:11:00,45.0,19.0,-100.00,NW,323,28.0,36.0,35,0.00,,,-99.99,,2013-02-05 23:11:00,
2013-02-05 16:21:00,43.0,18.0,-100.00,NW,323,30.0,35.0,36,0.00,,,-99.99,,2013-02-05 23:21:00,
2013-02-05 16:32:00,43.0,17.0,-100.00,NW,323,32.0,39.0,35,0.00,,,-99.99,,2013-02-05 23:32:00,
2013-02-05 16:42:00,43.0,17.0,-100.00,NW,323,31.0,40.0,35,0.00,,,-99.99,,2013-02-05 23:42:00,
2013-02-05 16:52:00,42.0,17.0,-100.00,NW,323,32.0,40.0,35,0.00,,,-99.99,,2013-02-05 23:52:00,
2013-02-05 17:02:00,42.0,18.0,-100.00,NW,323,32.0,39.0,37,0.00,,,-99.99,,2013-02-06 00:02:00,
2013-02-05 17:11:00,42.0,18.0,-100.00,NW,323,29.0,39.0,37,0.00,,,-99.99,,2013-02-06 00:11:00,
2013-02-05 17:21:00,42.0,17.0,-100.00,NW,323,28.0,35.0,36,0.00,,,-99.99,,2013-02-06 00:21:00,
2013-02-05 17:32:00,41.0,18.0,-100.00,NW,323,24.0,34.0,39,0.00,,,-99.99,,2013-02-06 00:32:00,
2013-02-05 17:42:00,40.0,18.0,-100.00,NW,323,23.0,29.0,39,0.00,,,-99.99,,2013-02-06 00:42:00,
2013-02-05 17:52:00,41.0,17.0,-100.00,NW,323,24.0,29.0,37,0.00,,,-99.99,,2013-02-06 00:52:00,
2013-02-05 18:02:00,40.0,18.0,-100.00,NW,323,21.0,26.0,39,0.00,,,-99.99,,2013-02-06 01:02:00,
2013-02-05 18:11:00,40.0,17.0,-100.00,NW,323,20.0,26.0,39,0.00,,,-99.99,,2013-02-06 01:11:00,
2013-02-05 18:21:00,40.0,18.0,-100.00,NW,323,17.0,22.0,40,0.00,,,-99.99,,2013-02-06 01:21:00,
2013-02-05 18:32:00,40.0,18.0,-100.00,NW,323,16.0,22.0,41,0.00,,,-99.99,,2013-02-06 01:32:00,
2013-02-05 18:42:00,40.0,18.0,-100.00,NW,323,17.0,22.0,40,0.00,,,-99.99,,2013-02-06 01:42:00,
2013-02-05 18:52:00,39.0,18.0,-100.00,NW,323,16.0,22.0,42,0.00,,,-99.99,,2013-02-06 01:52:00,
2013-02-05 19:01:00,39.0,18.0,-100.00,NW,323,15.0,19.0,41,0.00,,,-99.99,,2013-02-06 02:01:00,
2013-02-05 19:11:00,40.0,18.0,-100.00,NW,323,14.0,19.0,41,0.00,,,-99.99,,2013-02-06 02:11:00,
2013-02-05 19:22:00,40.0,18.0,-100.00,NW,323,11.0,15.0,40,0.00,,,-99.99,,2013-02-06 02:22:00,
2013-02-05 19:32:00,39.0,18.0,-100.00,NW,312,10.0,22.0,42,0.00,,,-99.99,,2013-02-06 02:32:00,
2013-02-05 19:42:00,41.0,18.0,-100.00,West,265,12.0,21.0,40,0.00,,,-99.99,,2013-02-06 02:42:00,
2013-02-05 19:52:00,40.0,18.0,-100.00,West,264,9.0,15.0,41,0.00,,,-99.99,,2013-02-06 02:52:00,
2013-02-05 20:02:00,39.0,18.0,-100.00,WSW,258,7.0,12.0,41,0.00,,,-99.99,,2013-02-06 03:02:00,
2013-02-05 20:12:00,41.0,18.0,-100.00,WNW,282,9.0,19.0,39,0.00,,,-99.99,,2013-02-06 03:12:00,
2013-02-05 20:22:00,38.0,18.0,-100.00,WSW,244,6.0,9.0,43,0.00,,,-99.99,,2013-02-06 03:22:00,
2013-02-05 20:32:00,39.0,17.0,-100.00,WSW,248,3.0,7.0,42,0.00,,,-99.99,,2013-02-06 03:32:00,
2013-02-05 20:42:00,37.0,18.0,-100.00,SE,138,3.0,6.0,44,0.00,,,-99.99,,2013-02-06 03:42:00,
2013-02-05 20:52:00,38.0,18.0,-100.00,ESE,121,5.0,9.0,44,0.00,,,-99.99,,2013-02-06 03:52:00,
2013-02-05 21:02:00,40.0,17.0,-100.00,South,172,3.0,7.0,40,0.00,,,-99.99,,2013-02-06 04:02:00,
2013-02-05 21:11:00,40.0,18.0,-100.00,South,186,3.0,7.0,41,0.00,,,-99.99,,2013-02-06 04:11:00,
2013-02-05 21:21:00,38.0,17.0,-100.00,SSE,147,3.0,7.0,42,0.00,,,-99.99,,2013-02-06 04:21:00,
2013-02-05 21:32:00,37.0,18.0,-100.00,SE,133,4.0,7.0,45,0.00,,,-99.99,,2013-02-06 04:32:00,
2013-02-05 21:42:00,36.0,18.0,-100.00,ENE,58,2.0,7.0,46,0.00,,,-99.99,,2013-02-06 04:42:00,
2013-02-05 21:51:00,36.0,18.0,-100.00,NE,41,4.0,8.0,46,0.00,,,-99.99,,2013-02-06 04:51:00,
2013-02-05 22:02:00,38.0,18.0,-100.00,NNE,23,4.0,9.0,43,0.00,,,-99.99,,2013-02-06 05:02:00,
2013-02-05 22:12:00,38.0,18.0,-100.00,ENE,76,5.0,9.0,44,0.00,,,-99.99,,2013-02-06 05:12:00,
2013-02-05 22:22:00,40.0,19.0,-100.00,SSW,192,6.0,12.0,42,0.00,,,-99.99,,2013-02-06 05:22:00,
2013-02-05 22:31:00,40.0,18.0,-100.00,South,171,6.0,18.0,41,0.00,,,-99.99,,2013-02-06 05:31:00,
2013-02-05 22:41:00,39.0,18.0,-100.00,SE,133,3.0,7.0,41,0.00,,,-99.99,,2013-02-06 05:41:00,
2013-02-05 22:52:00,38.0,18.0,-100.00,ESE,107,4.0,8.0,43,0.00,,,-99.99,,2013-02-06 05:52:00,
2013-02-05 23:01:00,39.0,18.0,-100.00,ESE,123,3.0,9.0,42,0.00,,,-99.99,,2013-02-06 06:01:00,
2013-02-05 23:11:00,38.0,18.0,-100.00,ESE,107,2.0,9.0,43,0.00,,,-99.99,,2013-02-06 06:11:00,
2013-02-05 23:21:00,39.0,19.0,-100.00,NNW,346,7.0,12.0,44,0.00,,,-99.99,,2013-02-06 06:21:00,
2013-02-05 23:32:00,41.0,20.0,-100.00,SW,230,12.0,24.0,42,0.00,,,-99.99,,2013-02-06 06:32:00,
2013-02-05 23:42:00,40.0,21.0,-100.00,SW,217,8.0,17.0,45,0.00,,,-99.99,,2013-02-06 06:42:00,
2013-02-05 23:51:00,40.0,20.0,-100.00,SSE,158,10.0,22.0,45,0.00,,,-99.99,,2013-02-06 06:51:00,